Theta_e
311 310 309 310 309 305 304 305 300 310 313 298 297 294 298 299 299 302 300 297 295 293 294 291 292 292 296 301 298 294 298 294 289 291 298 302 300 296 294 287 285 288 289 290
310 310 309 309 309 306 299 300 305 311 310 293 293 298 299 301 298 298 298 296 297 297 292 289 294 295 302 301 298 294 295 290 287 288 295 300 297 298 297 296 293 289 288 289
311 310 309 309 309 306 302 302 297 302 302 301 298 296 297 295 301 298 299 298 298 294 292 295 293 295 299 301 298 301 299 292 291 285 290 295 293 297 298 296 289 288 288 291
312 311 310 309 308 306 304 303 297 299 291 294 296 298 298 293 293 298 299 296 296 293 290 293 292 295 297 300 303 301 298 288 294 294 297 300 299 299 299 296 295 291 292 295
313 311 310 309 308 305 307 300 296 297 295 300 298 296 294 294 294 295 295 294 296 295 291 292 290 295 296 295 298 295 299 290 293 292 298 298 297 298 299 298 297 297 295 294
313 312 311 310 309 305 303 306 305 299 297 297 293 293 295 294 296 299 299 298 295 294 296 298 299 300 301 300 296 294 294 294 292 287 295 296 290 296 295 299 301 299 294 301
314 312 311 310 310 306 302 303 303 296 291 295 295 296 297 295 296 295 299 300 296 300 304 304 303 303 303 302 301 301 297 293 292 288 292 284 295 302 304 300 300 303 304 307
314 313 312 310 309 309 303 303 302 296 290 295 296 296 296 295 297 296 298 301 303 305 301 295 293 295 297 299 302 301 300 295 288 285 286 292 297 298 299 297 297 302 303 305
314 314 313 311 309 310 304 303 308 301 292 293 299 295 295 291 291 294 298 303 304 304 297 292 285 287 292 291 294 299 298 299 290 289 286 283 293 300 305 304 294 303 305 305
314 314 314 312 309 309 306 303 308 302 294 298 300 294 292 295 294 291 296 297 298 301 292 290 289 288 296 288 289 288 291 293 288 290 288 292 299 302 305 290 293 303 306 307
312 313 314 312 310 309 307 303 307 304 297 299 302 302 295 295 294 291 295 295 297 295 290 290 288 290 293 290 295 292 290 290 288 292 289 285 303 302 295 300 304 305 307 306
310 312 313 313 311 309 309 300 308 310 301 299 304 303 303 301 299 296 297 295 295 297 291 291 289 289 291 292 288 300 292 295 292 293 291 301 305 300 304 304 304 306 306 307
309 310 312 313 311 309 308 302 304 302 299 298 300 300 306 307 304 304 295 301 301 300 300 293 291 288 293 288 290 295 298 303 296 297 299 302 305 305 306 305 304 308 309 308
307 310 311 312 312 309 308 302 304 301 299 291 297 307 303 309 308 305 306 303 304 302 299 293 291 289 296 292 292 292 295 298 296 298 301 303 304 306 306 305 307 308 309 306
307 309 311 312 311 309 307 306 305 304 297 291 293 299 302 303 303 305 305 304 302 298 294 293 291 294 296 295 295 293 299 298 295 291 301 300 302 306 307 304 304 308 307 303
308 309 310 311 311 307 303 296 303 305 303 294 289 300 300 302 304 303 304 303 302 299 295 293 295 298 294 290 288 297 301 304 301 297 301 302 306 309 310 305 303 308 307 304
309 308 309 310 308 304 297 294 299 303 303 294 289 292 300 302 303 303 302 304 301 299 297 294 293 294 299 294 289 297 301 304 303 304 303 300 304 302 306 306 306 308 308 305
308 308 309 309 306 304 299 302 304 304 297 296 289 289 295 304 298 297 303 299 300 298 296 296 294 296 297 292 296 301 304 304 304 305 305 303 304 307 308 305 305 303 303 302
308 308 306 303 299 295 297 306 304 304 298 290 291 288 290 302 299 299 301 303 295 300 294 294 296 294 292 296 298 303 304 303 301 302 302 302 301 306 306 303 303 301 300 300
305 301 296 291 296 305 304 298 292 292 293 293 289 295 291 299 297 297 298 300 295 291 295 298 293 293 299 301 304 305 305 303 301 297 296 298 299 300 304 304 305 302 300 300
298 293 292 300 305 298 293 288 287 288 286 290 291 291 290 299 294 295 300 295 296 288 292 293 291 291 298 302 304 305 304 302 301 300 299 301 300 300 301 303 304 303 301 299
297 297 300 299 294 289 287 286 288 287 285 292 289 290 293 296 299 298 299 294 295 289 299 293 289 297 303 303 303 303 302 301 300 300 299 299 299 299 299 303 302 301 301 300
298 294 290 288 288 283 284 283 287 288 292 295 295 292 294 294 298 297 296 291 290 298 292 290 295 301 302 302 303 302 302 300 300 299 297 297 296 297 299 299 300 300 299 299
288 286 283 284 284 285 288 288 291 296 298 298 298 293 293 299 295 295 290 294 295 289 287 290 298 301 302 304 304 301 299 298 298 297 296 294 294 294 294 296 296 295 295 297
286 288 283 285 289 292 293 294 293 296 300 297 296 296 298 295 293 294 293 291 288 290 289 296 301 302 303 304 303 301 299 298 296 295 294 293 293 293 292 293 293 293 293 293
288 288 286 290 289 289 290 291 292 297 298 297 295 293 292 291 293 291 289 289 288 293 298 301 303 303 303 301 300 299 298 296 295 293 293 293 292 291 290 291 291 291 292 292
288 287 291 291 291 289 291 292 293 299 293 287 287 287 289 295 290 289 293 291 295 299 301 302 303 301 300 300 298 297 295 293 292 292 291 291 291 291 289 286 289 290 291 292
Wind_Speed
21 22 24 25 26 33 9 6 4 5 6 7 4 6 9 8 11 7 4 3 9 12 14 13 12 19 3 5 4 6 4 5 9 20 19 10 14 3 8 4 5 4 3 8
18 20 23 25 22 17 7 7 5 4 6 5 4 7 8 8 11 6 4 8 7 11 9 10 13 12 14 8 8 7 5 3 9 11 11 5 7 3 8 1 2 6 5 8
15 18 20 24 27 17 4 4 5 6 5 6 7 9 12 9 7 6 14 7 8 9 11 12 8 13 14 17 2 1 1 2 7 6 13 16 20 13 14 7 4 3 6 15
12 15 18 22 26 28 2 2 4 2 6 9 14 16 7 13 11 7 7 4 10 13 10 9 9 16 16 14 2 4 3 4 12 17 22 15 10 22 6 8 9 6 13 18
12 13 15 17 22 31 1 4 4 5 8 9 10 7 8 13 16 12 7 6 10 7 8 5 17 14 13 4 7 8 5 7 15 14 14 16 11 25 17 11 13 12 17 18
11 10 11 14 16 18 4 4 3 3 7 6 8 7 13 17 15 5 14 11 7 9 8 11 15 13 14 8 7 3 4 5 7 8 18 20 11 19 14 18 17 7 8 4
12 9 7 9 10 8 3 3 5 3 6 8 9 18 14 16 17 11 14 12 5 6 11 15 13 9 6 9 10 7 6 6 4 7 11 4 5 15 14 14 19 21 16 13
13 11 7 7 7 6 3 4 3 2 6 6 14 13 12 13 10 12 14 9 5 6 8 6 7 4 2 5 2 6 4 4 5 3 4 6 10 17 14 11 7 18 19 19
14 13 10 8 6 5 3 6 4 3 4 5 12 15 8 8 7 7 9 10 10 5 4 3 2 3 4 4 8 8 10 3 2 5 5 2 1 18 21 6 1 17 18 18
15 15 14 11 8 6 3 5 4 3 5 8 5 6 6 5 4 5 10 10 6 6 4 3 2 3 4 3 5 6 6 5 3 5 4 6 10 22 14 8 7 17 16 13
15 16 16 14 11 9 4 6 4 4 4 13 8 3 4 7 5 4 7 9 4 4 5 4 3 2 2 1 4 4 1 5 4 4 3 6 12 10 8 2 5 13 12 6
15 16 16 16 14 12 9 4 4 4 5 9 14 22 24 19 18 3 3 5 6 2 2 5 4 4 3 4 3 2 2 4 3 2 3 2 5 3 4 5 9 8 10 4
17 16 17 17 17 15 14 3 3 2 5 12 10 10 12 13 16 10 4 2 4 3 2 1 3 5 2 3 3 2 4 5 3 4 1 5 6 5 3 6 7 10 9 9
19 17 17 17 17 17 17 5 2 1 4 4 8 5 5 3 10 13 9 2 3 1 2 2 3 3 3 3 5 4 6 4 4 2 2 6 4 2 3 5 7 10 9 11
20 18 17 16 16 15 9 6 5 6 3 4 7 16 18 17 10 12 9 6 4 1 2 3 4 4 4 4 4 7 8 3 2 3 1 3 3 4 4 6 6 5 4 11
18 19 18 16 13 11 2 3 8 11 5 4 5 5 8 7 9 14 9 6 4 3 3 3 5 10 1 4 3 6 4 2 3 3 1 3 4 3 3 5 1 2 4 10
18 15 16 15 17 8 4 3 2 8 4 3 5 6 5 7 11 7 5 7 3 3 3 4 4 4 4 4 7 9 12 8 7 6 3 4 3 4 2 7 4 3 3 10
17 15 17 12 14 3 4 3 1 4 0 1 4 7 4 9 4 4 5 4 3 4 4 3 5 4 4 6 8 13 9 2 3 5 5 5 6 3 7 6 5 6 9 10
13 6 15 5 1 2 2 7 6 3 2 3 5 4 3 8 4 4 3 4 4 4 6 5 4 5 8 6 8 4 4 5 4 7 7 7 7 7 6 5 5 9 8 9
20 4 2 3 3 11 10 4 3 3 3 4 5 7 6 4 6 5 5 4 4 4 9 4 5 7 9 9 7 7 6 9 7 3 4 6 7 5 3 5 5 7 9 9
2 2 2 2 11 2 2 4 5 4 4 6 6 14 9 3 3 4 5 4 4 4 5 7 4 4 10 14 8 8 8 8 7 5 3 4 5 7 6 4 6 8 11 10
4 3 2 2 2 3 5 5 6 8 8 8 6 10 10 6 2 2 4 4 4 5 4 4 4 3 8 12 11 8 8 8 7 6 4 5 7 7 12 9 8 7 9 11
3 1 3 2 4 7 7 9 6 6 6 5 8 6 4 6 3 5 4 6 7 3 4 5 3 6 7 9 7 8 7 8 7 3 3 3 5 7 8 6 5 8 9 8
3 4 6 6 6 7 6 7 4 6 6 8 7 4 6 5 2 4 5 6 3 5 6 6 5 6 6 9 7 9 8 7 8 1 2 3 3 4 5 5 3 8 8 8
4 5 6 8 7 4 5 5 5 7 2 4 5 5 2 3 5 5 6 5 7 5 5 3 6 7 6 7 9 9 9 8 6 4 2 2 2 3 5 5 6 7 9 11
4 6 5 4 3 3 4 7 8 3 4 4 3 4 5 4 4 5 5 4 3 3 4 4 5 5 7 8 9 8 8 8 6 4 3 3 4 6 7 7 6 7 9 10
5 6 8 5 3 6 4 2 4 1 1 2 4 6 5 5 2 4 7 2 2 7 2 3 8 9 10 10 9 8 9 7 6 5 4 5 7 7 7 8 6 8 8 10
Wind_Direction
338 339 341 344 352 344 7 333 335 305 20 42 355 9 339 343 356 40 359 296 312 309 342 328 326 325 332 144 272 341 106 295 292 297 297 277 197 190 160 178 283 257 262 292
333 335 339 340 352 12 318 328 273 310 52 31 5 288 311 324 357 15 303 305 327 349 335 325 317 343 325 23 30 352 355 4 304 335 339 59 47 305 259 33 111 11 348 277
330 332 338 339 336 352 321 312 326 338 349 8 342 318 304 2 352 339 334 342 348 339 319 316 303 347 337 345 330 282 123 268 274 312 285 283 290 256 243 248 101 244 219 288
323 329 336 340 336 336 316 6 333 40 305 324 309 300 326 345 343 8 347 323 335 330 329 324 352 331 327 329 159 346 257 251 284 296 290 311 354 18 14 259 149 52 336 11
313 327 333 343 340 334 84 14 353 338 286 277 308 351 337 350 343 335 316 317 320 341 311 351 315 317 317 318 321 326 293 294 313 309 307 328 24 22 39 91 112 91 62 32
297 312 326 341 350 342 341 346 332 243 277 308 343 345 328 338 336 308 319 312 337 326 331 307 284 271 269 238 266 279 259 320 312 282 314 308 32 25 23 38 29 41 70 80
282 288 305 327 345 14 301 290 303 286 285 317 322 314 340 334 315 309 336 308 10 315 310 295 283 264 257 208 254 221 307 307 255 279 318 38 144 42 39 29 10 1 9 20
278 273 271 288 316 338 295 303 300 310 288 309 302 333 319 327 328 323 307 22 326 296 304 305 332 319 233 253 330 23 342 296 304 309 289 289 52 0 342 4 336 358 350 355
282 268 261 255 277 294 277 289 281 277 302 255 340 316 339 317 325 325 309 333 313 313 293 282 302 305 353 345 338 33 337 286 300 323 322 280 94 339 321 260 232 355 344 347
290 274 258 244 239 249 256 286 309 277 267 268 318 307 302 284 304 275 295 336 312 22 330 310 23 331 36 348 307 331 338 326 257 339 317 316 349 328 316 60 308 324 330 354
296 285 264 247 224 215 187 274 267 224 266 291 255 342 311 309 291 280 332 328 7 355 345 347 341 303 331 1 253 281 301 312 339 335 322 330 2 344 36 246 275 321 332 54
295 285 273 250 229 211 189 253 264 181 226 264 296 278 269 250 244 269 254 289 305 8 348 17 338 317 300 316 293 270 284 231 280 229 264 304 309 288 260 271 331 331 318 67
295 291 283 262 231 215 197 233 321 306 260 270 258 278 268 212 212 203 193 92 332 74 44 312 272 271 296 285 252 249 263 220 253 333 178 267 213 312 34 12 339 326 319 126
293 286 284 271 234 217 208 222 221 224 272 264 282 1 330 237 181 189 203 246 324 179 249 231 244 271 248 267 270 265 245 285 266 245 280 293 190 246 62 32 6 349 68 97
286 282 280 279 238 209 216 226 240 256 239 279 307 312 271 242 207 193 181 182 209 227 299 219 240 256 257 253 261 253 239 170 195 234 4 245 316 360 70 56 4 354 27 115
273 277 281 283 213 171 169 273 223 218 202 285 284 314 274 256 183 182 175 180 182 165 202 249 256 229 268 261 265 268 43 44 95 228 186 206 246 285 133 111 55 23 4 129
271 269 266 274 173 164 173 198 311 337 177 237 275 268 218 206 154 175 178 184 164 161 218 222 242 265 202 237 253 269 279 233 186 219 203 295 165 235 169 128 138 138 71 114
262 261 270 208 161 167 250 248 236 350 307 338 245 261 265 168 179 172 168 147 150 184 221 252 244 262 200 251 238 246 247 156 171 65 348 323 308 308 127 128 143 129 133 128
261 142 104 99 129 162 224 136 73 16 262 247 237 243 260 148 181 175 137 151 185 203 203 224 222 212 219 219 244 182 115 100 53 20 355 341 14 12 118 138 163 145 150 142
126 82 136 185 199 138 100 84 144 203 235 261 258 265 254 230 177 187 150 174 214 213 212 201 204 245 248 238 249 157 138 99 86 61 343 346 332 345 315 205 187 166 156 147
63 118 174 123 156 93 147 173 200 175 230 222 221 222 230 239 224 203 197 183 212 226 226 183 230 242 226 224 159 105 102 102 98 82 27 357 346 322 323 237 164 162 156 164
120 114 84 97 168 190 202 196 192 202 232 186 218 219 207 226 219 178 200 207 233 232 197 180 241 205 109 105 112 111 104 102 88 79 38 328 313 315 273 217 158 144 148 149
38 158 134 188 182 221 218 198 198 210 207 184 197 167 155 205 239 221 210 194 221 259 200 209 200 141 118 123 135 123 125 113 94 68 40 347 335 357 28 76 97 130 133 134
184 181 198 208 193 233 202 267 344 337 307 334 321 148 189 180 174 148 192 227 239 247 194 210 154 139 135 137 136 115 106 94 92 37 343 338 28 37 35 49 95 125 126 126
216 215 224 213 233 243 264 293 304 306 324 351 320 218 215 165 164 228 222 198 228 223 208 111 125 131 147 131 137 128 131 117 119 115 122 115 106 102 76 67 86 100 106 113
232 229 251 232 260 285 342 316 273 316 325 340 243 249 197 182 207 212 227 219 217 34 85 114 119 110 93 97 90 85 91 94 102 99 102 117 110 109 99 85 88 94 106 113
231 224 220 238 231 242 229 209 295 9 220 203 253 234 184 145 198 205 174 298 70 102 102 106 103 117 110 105 101 102 108 111 112 106 95 101 102 96 95 95 91 106 110 103